FW4559 Weather Reports


time (UTC)temp
F
wind
direction
speed
knots
gust
knots
rain 1hr
in
rain 24hr
in
rain mn
in
humidity
%
barometer
mb
20260831043005 64 221 0.0 0.0 0.00 0.00 0.00 96 1020.1
20260831042507 64 222 0.0 0.0 0.00 0.00 0.00 95 1020.3
20260831042003 64 222 0.0 0.0 0.00 0.00 0.00 95 1020.2
20260831041502 64 221 0.0 0.0 0.00 0.00 0.00 96 1020.3
20260831041005 64 221 0.0 0.0 0.00 0.00 0.00 96 1020.3
20260831040501 64 221 0.0 0.0 0.00 0.00 0.00 96 1020.5
20260831040100 64 222 0.0 0.0 0.00 0.00 0.00 96 1020.4
20260831035600 64 222 0.0 0.0 0.00 0.00 0.00 96 1020.4
20260831035059 64 221 0.0 0.0 0.00 0.00 0.00 96 1020.5
20260831034600 64 221 0.0 0.0 0.00 0.00 0.00 96 1020.4
20260831034059 64 221 0.0 0.0 0.00 0.00 0.00 96 1020.5
20260831033558 64 222 0.0 0.0 0.00 0.00 0.00 96 1020.6
20260831033058 64 221 0.0 0.0 0.00 0.00 0.00 96 1020.7
20260831032559 65 222 0.0 0.0 0.00 0.00 0.00 96 1020.6
20260831032100 65 221 0.0 0.0 0.00 0.00 0.00 96 1020.6
20260831031559 65 222 0.0 0.0 0.00 0.00 0.00 96 1020.7
20260831031057 65 221 0.0 0.0 0.00 0.00 0.00 96 1020.8
20260831030600 65 221 0.0 0.0 0.00 0.00 0.00 96 1020.7
20260831025557 65 221 0.0 0.9 0.00 0.00 0.00 96 1020.5
20260831025057 65 221 0.0 0.9 0.00 0.00 0.00 95 1020.5
20260831024617 65 221 0.0 0.9 0.00 0.00 0.00 95 1020.6
20260831024056 65 222 0.0 0.0 0.00 0.00 0.00 95 1020.4
20260831023557 65 221 0.0 0.0 0.00 0.00 0.00 95 1020.4
20260831023056 65 221 0.0 0.0 0.00 0.00 0.00 95 1020.4
20260831022556 65 221 0.0 0.0 0.00 0.00 0.00 95 1020.5
20260831022055 65 221 0.0 0.0 0.00 0.00 0.00 95 1020.4
20260831021556 65 221 0.0 0.0 0.00 0.00 0.00 95 1020.3
20260831021055 65 221 0.0 0.0 0.00 0.00 0.00 95 1020.1
20260831020555 66 222 0.0 0.0 0.00 0.00 0.00 95 1020.1
20260831020052 66 221 0.0 0.0 0.00 0.00 0.00 95 1020.3
20260831015550 65 221 0.0 0.0 0.00 0.00 0.00 95 1020.3
20260831015050 66 222 0.0 0.0 0.00 0.00 0.00 95 1020.5
20260831014548 66 221 0.0 0.0 0.00 0.00 0.00 95 1020.4
20260831014049 66 221 0.0 0.0 0.00 0.00 0.00 95 1020.4
20260831013547 66 221 0.0 0.0 0.00 0.00 0.00 95 1020.3
20260831013104 66 221 0.0 0.0 0.00 0.00 0.00 95 1020.2
20260831012547 66 221 0.0 0.0 0.00 0.00 0.00 94 1020.0
20260831012047 66 221 0.0 0.0 0.00 0.00 0.00 94 1020.2
20260831011554 66 221 0.0 0.0 0.00 0.00 0.00 94 1020.0
20260831011046 67 222 0.0 0.0 0.00 0.00 0.00 94 1020.0
20260831010547 67 222 0.0 0.0 0.00 0.00 0.00 94 1019.9
20260831010114 67 222 0.0 0.0 0.00 0.00 0.00 94 1019.9
20260831005545 67 222 0.0 0.0 0.00 0.00 0.00 94 1019.8
20260831005045 67 222 0.0 0.0 0.00 0.00 0.00 94 1019.6
20260831004547 67 222 0.0 0.0 0.00 0.00 0.00 93 1019.5
20260831004045 68 222 0.0 0.0 0.00 0.00 0.00 93 1019.7
20260831003544 68 222 0.0 0.0 0.00 0.00 0.00 93 1019.6
20260831003045 68 221 0.0 0.0 0.00 0.00 0.00 92 1019.6
20260831002545 68 221 0.0 0.0 0.00 0.00 0.00 92 1019.5
20260831002045 69 222 0.0 0.0 0.00 0.00 0.00 91 1019.6
20260831001545 69 222 0.0 0.0 0.00 0.00 0.00 91 1019.5
20260831001046 69 221 0.0 0.0 0.00 0.00 0.00 90 1019.5
20260831000543 70 222 0.0 0.0 0.00 0.00 0.00 90 1019.5
20260831000056 70 221 0.0 0.0 0.00 0.00 0.00 89 1019.4
20260830235542 71 222 0.0 0.0 0.00 0.00 0.00 89 1019.5
20260830235042 71 222 0.0 0.0 0.00 0.00 0.00 88 1019.6
20260830234542 71 221 0.0 0.0 0.00 0.00 0.00 87 1019.5
20260830234043 72 221 0.0 0.0 0.00 0.00 0.00 87 1019.5
20260830233543 72 222 0.0 0.0 0.00 0.00 0.00 86 1019.4
20260830233043 72 221 0.0 0.0 0.00 0.00 0.00 85 1019.3
20260830232548 73 222 0.0 0.0 0.00 0.00 0.00 85 1019.3
20260830232045 73 221 0.0 0.0 0.00 0.00 0.00 84 1019.2
20260830231544 73 222 0.0 1.7 0.00 0.00 0.00 83 1019.3
20260830231041 73 222 0.0 1.7 0.00 0.00 0.00 83 1019.4
20260830230541 74 170 0.0 1.7 0.00 0.00 0.00 82 1019.4
20260830230050 74 170 0.0 1.7 0.00 0.00 0.00 81 1019.4
20260830225541 74 217 0.0 2.6 0.00 0.00 0.00 81 1019.3
20260830225040 75 233 0.0 2.6 0.00 0.00 0.00 81 1019.2
20260830224540 74 158 0.9 2.6 0.00 0.00 0.00 81 1019.3
20260830224040 74 189 0.0 2.6 0.00 0.00 0.00 83 1019.2
20260830223542 74 188 0.0 2.6 0.00 0.00 0.00 82 1019.2
20260830223059 74 126 0.0 1.7 0.00 0.00 0.00 84 1019.3
20260830222542 73 195 0.0 1.7 0.00 0.00 0.00 85 1019.2
20260830222039 73 181 0.0 1.7 0.00 0.00 0.00 84 1019.2
20260830221539 73 219 0.0 0.9 0.00 0.00 0.00 84 1019.3
20260830221041 73 119 0.0 1.7 0.00 0.00 0.00 85 1019.4
20260830220539 73 191 0.0 1.7 0.00 0.00 0.00 84 1019.4
20260830220042 73 153 0.0 1.7 0.00 0.00 0.00 84 1019.4
20260830215539 73 226 0.0 1.7 0.00 0.00 0.00 84 1019.4
20260830215040 74 179 0.0 1.7 0.00 0.00 0.00 83 1019.4
20260830214538 74 179 0.9 1.7 0.00 0.00 0.00 83 1019.3
20260830214037 74 167 0.0 1.7 0.00 0.00 0.00 82 1019.4
20260830213538 74 169 0.0 1.7 0.00 0.00 0.00 82 1019.4
20260830213039 74 116 0.0 1.7 0.00 0.00 0.00 82 1019.3
20260830212537 74 134 0.0 3.5 0.00 0.00 0.00 82 1019.5
20260830212038 74 131 0.0 3.5 0.00 0.00 0.00 81 1019.4
20260830211537 74 153 0.0 1.7 0.00 0.00 0.00 81 1019.4
20260830211038 74 143 0.0 5.2 0.00 0.00 0.00 81 1019.3
20260830210538 74 153 0.0 5.2 0.00 0.00 0.00 80 1019.4
20260830210038 75 163 0.0 2.6 0.00 0.00 0.00 79 1019.3
20260830205536 75 139 0.0 2.6 0.00 0.00 0.00 79 1019.3
20260830205036 75 136 0.0 2.6 0.00 0.00 0.00 78 1019.3
20260830204537 75 139 0.9 2.6 0.00 0.00 0.00 77 1019.3
20260830204037 76 164 0.0 1.7 0.00 0.00 0.00 78 1019.4
20260830203535 76 208 0.0 3.5 0.00 0.00 0.00 77 1019.4
20260830203037 76 118 0.0 3.5 0.00 0.00 0.00 77 1019.4
20260830202538 76 188 0.0 1.7 0.00 0.00 0.00 77 1019.3
20260830202034 76 159 0.0 1.7 0.00 0.00 0.00 78 1019.4
20260830201537 76 123 0.0 1.7 0.00 0.00 0.00 77 1019.5
20260830201034 77 158 0.0 1.7 0.00 0.00 0.00 76 1019.5
20260830200533 77 195 0.0 2.6 0.00 0.00 0.00 76 1019.6
20260830200034 77 214 0.0 2.6 0.00 0.00 0.00 76 1019.6
20260830195535 77 127 0.0 2.6 0.00 0.00 0.00 74 1019.6
20260830195034 77 210 0.0 0.9 0.00 0.00 0.00 77 1019.6
20260830194541 77 191 0.0 1.7 0.00 0.00 0.00 76 1019.6
20260830194033 77 191 0.0 1.7 0.00 0.00 0.00 77 1019.6
20260830193532 77 167 0.0 3.5 0.00 0.00 0.00 76 1019.6
20260830193035 77 158 0.9 3.5 0.00 0.00 0.00 76 1019.6
20260830192530 77 185 0.9 2.6 0.00 0.00 0.00 75 1019.8
20260830192030 77 193 0.0 1.7 0.00 0.00 0.00 75 1019.9
20260830191529 77 143 0.0 1.7 0.00 0.00 0.00 75 1020.0
20260830191028 78 168 0.0 1.7 0.00 0.00 0.00 74 1019.9
20260830190527 78 157 0.0 3.5 0.00 0.00 0.00 74 1020.0
20260830190028 78 128 0.9 3.5 0.00 0.00 0.00 73 1020.0
20260830185529 78 182 0.0 5.2 0.00 0.00 0.00 73 1020.0
20260830185027 79 110 0.9 6.1 0.00 0.00 0.00 70 1020.2
20260830184529 80 95 1.7 5.2 0.00 0.00 0.00 67 1020.2
20260830184024 81 233 0.9 6.1 0.00 0.00 0.00 68 1020.3
20260830183525 81 207 1.7 6.1 0.00 0.00 0.00 68 1020.4
20260830183025 81 167 2.6 6.1 0.00 0.00 0.00 66 1020.4
20260830182524 82 126 1.7 5.2 0.00 0.00 0.00 65 1020.5
20260830182022 83 149 0.9 5.2 0.00 0.00 0.00 67 1020.4
20260830181521 82 203 0.9 8.7 0.00 0.00 0.00 67 1020.6
20260830181021 82 120 2.6 8.7 0.00 0.00 0.00 66 1020.6
20260830180520 82 183 0.9 3.5 0.00 0.00 0.00 66 1020.8
20260830180018 82 227 0.9 3.5 0.00 0.00 0.00 66 1020.9
20260830175519 82 195 0.9 3.5 0.00 0.00 0.00 64 1020.9
20260830175017 81 202 0.0 4.3 0.00 0.00 0.00 67 1021.1
20260830174520 81 115 0.9 5.2 0.00 0.00 0.00 69 1021.1
20260830174016 81 138 0.0 5.2 0.00 0.00 0.00 68 1021.2
20260830173516 81 198 1.7 6.1 0.00 0.00 0.00 66 1021.3
20260830173015 82 169 2.6 6.1 0.00 0.00 0.00 67 1021.4
20260830172515 82 231 0.9 2.6 0.00 0.00 0.00 66 1021.4
20260830172018 82 179 0.0 1.7 0.00 0.00 0.00 68 1021.4
20260830171512 81 189 0.0 4.3 0.00 0.00 0.00 69 1021.4
20260830171012 81 219 1.7 4.3 0.00 0.00 0.00 68 1021.5
20260830170509 80 262 0.9 3.5 0.00 0.00 0.00 69 1021.6
20260830170012 80 178 0.9 4.3 0.00 0.00 0.00 70 1021.7
20260830165509 80 177 1.7 7.8 0.00 0.00 0.00 70 1021.8
20260830165012 81 201 1.7 7.8 0.00 0.00 0.00 68 1021.8
20260830164509 80 222 0.9 3.5 0.00 0.00 0.00 71 1021.9
20260830164008 79 138 0.9 3.5 0.00 0.00 0.00 69 1021.9
20260830163508 79 239 0.9 3.5 0.00 0.00 0.00 67 1022.0
20260830163008 80 224 0.9 2.6 0.00 0.00 0.00 68 1022.0
20260830162509 79 117 0.0 3.5 0.00 0.00 0.00 70 1022.0
20260830162007 79 184 0.9 3.5 0.00 0.00 0.00 69 1022.1
20260830161503 78 135 0.9 2.6 0.00 0.00 0.00 72 1022.2
20260830161002 76 146 0.0 4.3 0.00 0.00 0.00 75 1022.2
20260830160502 75 217 0.9 4.3 0.00 0.00 0.00 74 1022.2
20260830160001 76 86 0.9 3.5 0.00 0.00 0.00 73 1022.2
20260830155501 77 350 0.9 3.5 0.00 0.00 0.00 70 1022.3
20260830155002 77 122 0.0 1.7 0.00 0.00 0.00 72 1022.4
20260830154601 77 123 0.9 3.5 0.00 0.00 0.00 71 1022.5
20260830154100 77 147 0.9 5.2 0.00 0.00 0.00 75 1022.5
20260830153558 76 172 0.9 5.2 0.00 0.00 0.00 76 1022.5
20260830153058 76 213 0.9 3.5 0.00 0.00 0.00 75 1022.5
20260830152555 75 210 0.0 2.6 0.00 0.00 0.00 78 1022.5
20260830152054 74 184 0.9 2.6 0.00 0.00 0.00 79 1022.6
20260830151600 74 195 0.9 1.7 0.00 0.00 0.00 79 1022.6
20260830151052 73 186 0.0 2.6 0.00 0.00 0.00 81 1022.6
20260830150551 72 179 0.0 2.6 0.00 0.00 0.00 81 1022.7
20260830150051 72 137 0.9 2.6 0.00 0.00 0.00 81 1022.7
20260830145550 72 167 0.9 2.6 0.00 0.00 0.00 81 1022.7
20260830145047 72 212 0.0 2.6 0.00 0.00 0.00 83 1022.6
20260830144549 72 233 0.0 2.6 0.00 0.00 0.00 84 1022.6
20260830144046 71 219 0.0 0.9 0.00 0.00 0.00 86 1022.6
20260830143544 71 219 0.0 0.0 0.00 0.00 0.00 87 1022.6
20260830143044 70 219 0.0 0.0 0.00 0.00 0.00 88 1022.6
20260830142541 70 148 0.0 0.0 0.00 0.00 0.00 89 1022.6
20260830142044 69 148 0.0 1.7 0.00 0.00 0.00 90 1022.5
20260830141542 69 146 0.0 1.7 0.00 0.00 0.00 90 1022.5
20260830141038 69 136 0.0 0.9 0.00 0.00 0.00 91 1022.5
20260830140535 68 145 0.0 0.9 0.00 0.00 0.00 93 1022.5
20260830140034 68 136 0.0 0.0 0.00 0.00 0.00 94 1022.4
20260830135538 67 111 0.0 0.0 0.00 0.00 0.00 94 1022.5
20260830135034 67 111 0.0 0.0 0.00 0.00 0.00 94 1022.5
20260830134541 67 94 0.0 1.7 0.00 0.00 0.00 95 1022.6
20260830134034 67 120 0.0 1.7 0.00 0.00 0.00 95 1022.5
20260830133535 67 214 0.0 1.7 0.00 0.00 0.00 96 1022.5
20260830133034 67 213 0.0 0.0 0.00 0.00 0.00 96 1022.6
20260830132536 66 213 0.0 0.0 0.00 0.00 0.00 96 1022.7
20260830132035 66 212 0.0 0.0 0.00 0.00 0.00 96 1022.8
20260830131537 66 213 0.0 0.0 0.00 0.00 0.00 96 1022.9
20260830131032 66 212 0.0 0.0 0.00 0.00 0.00 96 1022.9
20260830125554 65 213 0.0 0.0 0.00 0.01 0.00 96 1022.7
20260830125057 64 213 0.0 0.0 0.00 0.01 0.00 96 1022.7
20260830124552 64 213 0.0 0.0 0.00 0.01 0.00 96 1022.8
20260830124054 64 213 0.0 0.0 0.00 0.01 0.00 96 1022.8
20260830123552 64 213 0.0 0.0 0.00 0.01 0.00 96 1022.8
20260830123056 64 213 0.0 0.0 0.00 0.01 0.00 96 1022.8
20260830122551 63 213 0.0 0.0 0.00 0.01 0.00 96 1022.7
20260830122050 64 213 0.0 0.0 0.00 0.01 0.00 96 1022.6
20260830121555 63 213 0.0 0.0 0.00 0.01 0.00 96 1022.5
20260830121051 63 213 0.0 0.0 0.00 0.01 0.00 96 1022.5
20260830120549 64 120 0.0 0.0 0.00 0.01 0.00 96 1022.3
20260830120049 63 120 0.0 0.0 0.00 0.01 0.00 96 1022.2
20260830115549 63 120 0.0 0.0 0.00 0.01 0.00 96 1022.1
20260830115049 63 120 0.0 0.0 0.00 0.01 0.00 96 1022.0
20260830114548 63 120 0.0 0.0 0.00 0.01 0.00 96 1022.0
20260830114047 63 120 0.0 0.0 0.00 0.01 0.00 96 1021.9
20260830113547 63 120 0.0 0.0 0.00 0.01 0.00 96 1021.8
20260830113046 63 120 0.0 0.0 0.00 0.01 0.00 96 1021.8
20260830112546 63 120 0.0 0.0 0.00 0.01 0.00 96 1021.8
20260830112049 63 120 0.0 0.0 0.00 0.01 0.00 96 1021.8
20260830111546 62 120 0.0 0.0 0.00 0.01 0.00 96 1021.8
20260830111050 62 120 0.0 0.0 0.00 0.01 0.00 96 1021.7
20260830110548 62 120 0.0 0.0 0.00 0.01 0.00 96 1021.6
20260830110057 62 120 0.0 0.0 0.00 0.01 0.00 96 1021.6
20260830105544 62 120 0.0 0.0 0.00 0.01 0.00 96 1021.5
20260830105045 62 120 0.0 0.0 0.00 0.01 0.00 96 1021.4
20260830104545 62 120 0.0 0.0 0.00 0.01 0.00 96 1021.5
20260830104044 62 120 0.0 0.0 0.00 0.01 0.00 96 1021.4
20260830103544 62 120 0.0 0.0 0.00 0.01 0.00 96 1021.3
20260830103044 62 120 0.0 0.0 0.00 0.01 0.00 96 1021.3
20260830102544 62 120 0.0 0.0 0.00 0.01 0.00 96 1021.2
20260830102042 63 120 0.0 0.0 0.00 0.01 0.00 96 1021.2
20260830101541 63 120 0.0 0.0 0.00 0.01 0.00 96 1021.2
20260830101043 63 120 0.0 0.0 0.00 0.01 0.00 96 1021.2
20260830100541 63 120 0.0 0.0 0.00 0.01 0.00 96 1021.2
20260830100050 63 120 0.0 0.0 0.00 0.01 0.00 96 1021.2
20260830095544 63 120 0.0 0.0 0.00 0.01 0.00 96 1021.3
20260830095041 63 120 0.0 0.0 0.00 0.01 0.00 96 1021.3
20260830094539 63 120 0.0 0.0 0.00 0.01 0.00 96 1021.3
20260830094039 63 120 0.0 0.0 0.00 0.01 0.00 96 1021.3
20260830093539 63 120 0.0 0.0 0.00 0.01 0.00 96 1021.2
20260830093039 63 120 0.0 0.0 0.00 0.01 0.00 96 1021.3
20260830092539 63 120 0.0 0.0 0.00 0.01 0.00 96 1021.3
20260830092040 63 120 0.0 0.0 0.00 0.01 0.00 96 1021.3
20260830091541 63 120 0.0 0.0 0.00 0.01 0.00 96 1021.3
20260830091039 63 120 0.0 0.0 0.00 0.01 0.00 96 1021.4
20260830090541 63 120 0.0 0.0 0.00 0.01 0.00 96 1021.5
20260830090038 63 120 0.0 0.0 0.00 0.01 0.00 96 1021.5
20260830085537 63 120 0.0 0.0 0.00 0.01 0.00 96 1021.5
20260830085037 63 120 0.0 0.0 0.00 0.01 0.00 96 1021.5
20260830084611 63 120 0.0 0.0 0.00 0.01 0.00 96 1021.4
20260830084036 63 120 0.0 0.0 0.00 0.01 0.00 96 1021.4
20260830083535 63 120 0.0 0.0 0.00 0.01 0.00 96 1021.4
20260830083037 63 120 0.0 0.0 0.00 0.01 0.00 96 1021.4
20260830082537 63 120 0.0 0.0 0.00 0.01 0.00 96 1021.4
20260830082034 63 120 0.0 0.0 0.00 0.01 0.00 96 1021.4
20260830081540 63 120 0.0 0.0 0.00 0.01 0.00 96 1021.4
20260830081034 63 120 0.0 0.0 0.00 0.01 0.00 96 1021.4
20260830080533 64 120 0.0 0.0 0.00 0.01 0.00 96 1021.4
20260830080033 64 120 0.0 0.9 0.00 0.01 0.00 96 1021.4
20260830075534 64 228 0.0 0.0 0.00 0.01 0.00 96 1021.4
20260830075035 64 228 0.0 0.0 0.00 0.01 0.00 96 1021.3
20260830074534 64 228 0.0 0.0 0.00 0.01 0.00 96 1021.4
20260830074029 64 228 0.0 0.9 0.00 0.01 0.00 96 1021.4
20260830073529 65 228 0.0 0.9 0.00 0.01 0.00 96 1021.4
20260830073029 64 227 0.0 0.9 0.00 0.01 0.00 96 1021.5
20260830072529 64 227 0.0 0.9 0.00 0.01 0.00 96 1021.5
20260830072029 64 227 0.0 0.0 0.00 0.01 0.00 95 1021.5
20260830071528 64 227 0.0 0.0 0.00 0.01 0.00 95 1021.5
20260830071028 65 227 0.0 0.0 0.00 0.01 0.00 96 1021.5
20260830070528 65 227 0.0 0.0 0.00 0.01 0.00 96 1021.4
20260830070027 65 227 0.0 0.0 0.00 0.01 0.00 96 1021.5
20260830065527 64 227 0.0 0.0 0.00 0.01 0.00 95 1021.5
20260830065027 64 227 0.0 0.0 0.00 0.01 0.00 95 1021.6
20260830064526 65 227 0.0 0.0 0.00 0.01 0.00 95 1021.7
20260830064025 65 227 0.0 0.0 0.00 0.01 0.00 95 1021.5
20260830063525 65 116 0.0 0.0 0.00 0.01 0.00 95 1021.6
20260830063024 65 116 0.0 0.0 0.00 0.01 0.00 95 1021.7
20260830062523 65 116 0.0 0.0 0.00 0.01 0.00 95 1021.6
20260830062021 65 116 0.0 0.0 0.00 0.01 0.00 94 1021.6
20260830061529 66 116 0.0 0.0 0.00 0.01 0.00 94 1021.7
20260830061019 66 116 0.0 0.0 0.00 0.01 0.00 94 1021.8
20260830060518 66 116 0.0 0.0 0.00 0.01 0.00 94 1021.9
20260830060018 66 116 0.0 0.0 0.00 0.01 0.00 94 1021.9
20260830055517 66 124 0.0 0.0 0.00 0.01 0.00 94 1022.1
20260830055016 66 124 0.0 1.7 0.00 0.01 0.00 94 1022.1
20260830054515 67 153 0.0 1.7 0.00 0.01 0.00 94 1022.0
20260830054014 67 207 0.0 0.9 0.00 0.01 0.00 93 1022.2
20260830053514 67 117 0.0 3.5 0.00 0.01 0.00 93 1022.2
20260830053013 67 184 0.0 3.5 0.00 0.01 0.00 93 1022.4
20260830052513 67 141 0.0 3.5 0.00 0.01 0.00 93 1022.4
20260830052013 67 146 0.0 1.7 0.00 0.01 0.00 93 1022.5
20260830051513 67 146 0.0 5.2 0.00 0.01 0.00 93 1022.6
20260830051012 67 143 0.9 5.2 0.00 0.01 0.00 93 1022.5
20260830050513 67 150 0.0 3.5 0.00 0.01 0.00 93 1022.5
20260830050011 67 137 0.0 2.6 0.00 0.01 0.00 93 1022.5
20260830045511 67 165 0.9 3.5 0.00 0.01 0.00 93 1022.5
20260830045112 67 181 0.0 3.5 0.00 0.01 0.00 93 1022.5
20260830044510 67 220 0.0 2.6 0.00 0.01 0.00 93 1022.5
20260830044014 67 148 0.0 4.3 0.00 0.01 0.00 93 1022.6
20260830043511 67 207 0.0 4.3 0.00 0.01 0.00 93 1022.6